Dati Storici

Data ora Umidita' aria (%) Temperatura aria (°C) Rad globale (W/m²) Gonioanemometro (°) Tacoanemometro (m/s) Pioggia (mm)
09-06-2020 02:10 98 % 15.169 -79.516 2.033 0 0
09-06-2020 02:00 98 % 15.179 -80.539 1.634 0 0
09-06-2020 01:50 97.9 % 15.168 -53.512 1.081 0 0
09-06-2020 01:40 98 % 15.144 -79.52 2.712 0 0
09-06-2020 01:30 98 % 15.238 -80.923 1.225 0 0
09-06-2020 01:20 98 % 15.198 -48.801 2.725 0 0
09-06-2020 01:10 97.9 % 15.225 -79.261 1.947 0 0
09-06-2020 01:00 97.9 % 15.228 -79.382 1.612 0 0
09-06-2020 00:50 98 % 15.244 -80.596 2.001 0 0
09-06-2020 00:40 98 % 15.231 -81.991 1.758 0 0
09-06-2020 00:30 98 % 15.271 -78.749 3.883 0 0
09-06-2020 00:20 98 % 15.295 -79.442 2.451 0 0
09-06-2020 00:10 97.9 % 15.319 -81.737 1.416 0 0
09-06-2020 00:00 97.9 % 15.388 -78.97 3.383 0 0
08-06-2020 23:50 97.9 % 15.41 -79.732 3.296 0 0
08-06-2020 23:40 97.9 % 15.511 -82.397 1.937 0 0
08-06-2020 23:30 97.9 % 15.534 -80.945 3.442 0 0
08-06-2020 23:20 97.9 % 15.508 -80.516 2.416 0 0
08-06-2020 23:10 97.9 % 15.612 -80.634 2.052 0 0
08-06-2020 23:00 97.9 % 15.601 -79.092 1.736 0 0

I dati sono presentati in modo automatico a scopo informativo. In seguito a verifica i dati possono subire modifiche o essere invalidati e non riportati negli archivi definitivi.